Theta_e
308 308 309 309 309 310 310 310 311 311 311 312 312 313 316 321 325 326 327 328 331 328 345 353 354 355 355 357 353 346 355 354 354 358 355 347 346 345 344 343 342 343 342 346 348
309 309 308 308 308 309 310 310 310 311 311 312 312 312 313 318 324 328 328 327 327 327 335 355 356 356 355 355 352 349 353 351 350 350 353 350 346 344 343 343 343 342 344 347 347
309 309 309 309 309 308 309 310 310 310 311 311 312 312 312 315 323 330 332 328 327 328 347 352 352 352 354 353 353 350 353 346 348 349 350 352 346 345 344 344 342 343 346 346 346
307 308 309 309 309 309 309 310 310 310 311 311 312 312 312 314 331 328 327 329 327 327 340 342 348 349 350 351 353 355 349 349 346 346 351 355 349 344 343 343 342 343 345 346 346
307 307 308 309 310 309 310 310 310 311 311 311 311 312 312 314 321 328 327 327 327 327 331 343 349 351 351 348 348 353 351 353 348 354 354 353 348 345 344 343 343 343 343 345 345
308 308 308 309 310 310 310 310 310 310 311 311 311 311 312 315 323 329 329 327 327 327 328 335 346 346 346 348 346 350 352 354 353 354 354 350 347 345 343 343 342 342 343 343 344
308 309 308 308 309 310 310 310 313 311 311 311 311 311 312 317 321 320 323 336 333 335 328 330 338 340 340 336 349 350 353 354 353 353 355 349 353 346 343 342 343 342 343 343 343
309 309 309 309 309 310 310 314 318 312 311 311 319 316 317 320 319 319 319 324 327 336 336 328 337 338 338 339 339 351 352 356 354 352 353 351 356 346 342 342 342 342 342 343 343
310 310 310 309 310 317 318 319 320 314 319 317 320 321 321 319 318 318 317 319 327 325 330 335 336 337 338 337 336 343 356 358 354 346 347 354 355 351 343 341 341 342 342 343 342
310 310 310 310 315 318 318 316 320 319 316 326 321 321 320 318 318 319 318 316 317 319 324 334 335 331 330 332 340 339 351 357 358 353 348 352 354 349 348 341 340 341 341 342 342
310 310 310 310 317 317 316 315 316 318 317 317 318 319 319 317 318 319 318 318 317 319 327 329 331 333 331 330 333 335 336 351 352 351 353 352 351 352 349 341 340 340 340 341 342
310 310 314 315 317 319 317 316 317 317 317 319 319 319 318 318 317 318 318 318 317 316 321 321 321 323 330 330 330 330 330 331 345 346 348 349 351 353 346 341 341 340 340 340 341
311 310 311 316 318 319 319 316 317 317 316 319 319 317 318 318 318 319 318 318 317 316 315 319 321 322 322 323 327 329 329 332 342 347 348 349 352 354 351 342 341 339 340 340 341
311 311 311 312 318 318 317 317 317 318 313 319 318 319 320 318 318 320 319 318 317 315 314 314 316 318 318 319 321 324 328 329 339 345 346 345 351 357 354 350 340 338 339 342 341
311 311 315 318 319 318 317 318 319 319 317 319 318 319 319 319 319 319 319 318 316 315 316 314 317 316 316 317 317 318 321 324 330 342 342 342 346 345 354 355 345 340 339 342 340
309 311 311 319 320 319 319 320 320 317 320 318 318 316 315 317 317 318 319 319 318 316 315 313 317 316 316 317 317 318 317 318 325 338 344 341 341 340 357 355 351 343 341 342 343
309 310 311 316 319 319 321 322 317 318 317 316 316 315 314 315 315 318 318 316 314 314 314 314 314 314 316 316 316 316 313 316 324 332 343 335 337 338 349 352 351 347 345 343 342
309 310 316 318 318 320 321 318 322 318 316 316 315 315 317 315 317 317 317 317 318 318 316 318 318 318 319 318 315 316 314 316 327 328 329 330 337 338 340 348 350 350 348 346 342
309 313 317 318 318 319 320 319 320 318 317 317 315 316 316 316 317 316 315 318 319 318 320 319 319 320 320 321 317 316 314 313 316 317 324 328 331 330 334 340 348 350 350 348 344
312 318 320 318 319 320 316 319 321 318 318 316 317 317 316 315 315 314 314 318 320 319 319 319 318 317 321 320 319 317 315 314 314 322 322 327 331 333 333 344 349 350 350 350 348
318 322 323 318 318 318 315 317 318 319 318 317 317 316 315 314 315 314 314 314 318 318 318 316 315 317 318 319 320 319 319 317 313 317 321 324 329 327 331 336 346 350 350 350 349
313 319 321 319 318 314 315 320 321 318 317 316 316 315 314 313 314 314 314 313 316 315 317 317 311 313 316 317 317 319 317 316 319 317 321 324 328 328 337 337 339 350 348 351 350
315 320 323 322 312 312 314 318 319 318 316 316 315 315 314 314 314 314 315 316 316 316 316 315 312 312 313 313 315 317 319 318 320 314 319 323 326 331 334 352 350 352 352 351 352
318 317 320 319 318 317 315 315 317 318 317 316 315 315 314 315 312 314 313 315 316 319 317 315 310 312 313 315 316 318 320 320 320 315 317 319 325 327 339 355 350 349 350 351 352
321 317 317 313 314 314 316 316 317 316 316 316 314 312 313 313 310 313 313 312 314 315 313 311 313 315 315 316 318 319 320 321 327 322 316 319 318 325 344 351 347 348 348 349 347
321 319 319 317 318 315 314 317 317 316 314 314 313 313 310 313 314 315 314 313 313 312 311 309 311 312 314 315 317 318 319 326 330 335 339 333 343 345 341 345 343 341 343 343 344
319 319 320 318 316 315 316 316 316 315 315 316 315 312 313 315 316 316 316 316 314 311 312 309 308 309 311 313 315 317 328 331 330 334 337 339 337 344 342 337 339 341 339 341 340
Wind_Speed
9 9 9 9 10 11 11 11 12 13 13 13 13 13 12 11 8 11 9 2 2 5 5 7 4 5 4 7 12 11 3 4 8 7 12 30 20 19 17 37 22 4 28 36 35
10 10 10 10 10 10 10 11 11 12 12 12 12 12 11 11 9 11 8 8 4 3 1 3 2 4 1 4 11 6 2 4 4 11 8 14 30 25 17 22 23 26 29 40 38
10 10 10 10 10 9 9 9 10 11 12 11 10 9 8 7 7 3 5 6 4 2 5 4 4 3 7 6 10 6 5 7 11 21 16 13 20 21 28 16 35 34 42 42 34
11 11 10 10 10 9 9 9 9 10 10 10 7 7 6 2 4 4 10 3 6 5 7 4 4 4 1 3 9 7 9 5 13 14 10 10 14 21 28 20 37 36 40 38 33
12 11 10 9 9 9 9 9 9 9 9 9 6 4 3 3 6 7 7 5 5 6 8 7 8 6 2 3 6 6 18 13 12 18 23 16 8 13 23 35 36 35 34 37 30
13 12 10 9 8 9 9 9 9 8 8 7 5 3 1 2 4 3 6 6 6 7 9 9 6 7 14 12 5 11 16 13 15 22 22 12 16 16 26 36 34 34 32 35 31
13 13 12 10 9 9 9 9 9 8 7 6 5 4 3 6 4 1 1 6 9 9 10 11 10 12 17 7 6 7 6 10 14 10 3 20 5 14 33 36 34 33 32 33 30
14 13 12 12 10 9 9 8 9 8 6 5 6 5 1 3 2 5 7 8 8 10 12 10 7 20 11 13 5 1 4 3 3 9 10 7 4 12 33 33 31 35 32 31 33
14 13 12 11 9 10 11 10 7 5 6 4 5 4 2 6 6 2 4 11 12 9 16 11 12 10 8 4 5 1 3 2 2 15 3 2 3 12 29 31 29 30 31 33 30
13 12 12 9 8 12 15 13 5 6 14 3 2 5 5 10 4 7 5 7 9 10 13 12 9 2 5 5 4 3 4 4 7 10 10 10 6 13 25 29 30 29 28 33 34
11 12 11 7 6 13 18 7 6 3 12 5 10 12 12 11 9 6 8 6 7 6 2 6 4 4 8 8 11 10 10 10 7 10 10 19 11 16 19 27 27 31 28 33 39
11 11 8 6 5 8 11 13 11 9 8 5 8 13 11 5 5 4 4 0 3 2 4 6 4 7 6 10 11 10 7 9 9 10 10 8 12 13 21 29 35 34 31 33 39
11 10 5 2 6 8 7 9 9 9 1 9 3 2 3 4 4 7 1 4 2 1 4 4 7 11 10 9 12 15 4 6 7 4 11 8 6 9 17 22 28 33 36 32 43
9 10 7 2 5 12 13 9 8 7 5 6 2 2 4 3 5 6 7 6 2 7 5 4 7 6 10 7 4 9 13 10 6 3 5 7 5 6 17 18 21 29 32 33 42
10 8 5 5 5 10 10 9 7 4 4 2 2 7 8 1 8 5 9 8 3 5 4 9 5 7 8 6 6 10 16 12 10 6 1 2 1 8 14 19 16 29 36 37 43
11 8 4 2 3 8 11 9 5 5 2 4 4 5 9 12 11 7 1 1 3 2 1 8 8 4 5 12 9 12 12 12 4 5 4 8 7 11 10 27 23 31 37 41 41
12 9 5 5 1 8 10 9 5 4 4 7 4 6 7 6 7 4 4 10 6 6 6 7 6 7 3 8 12 3 6 5 4 1 6 11 8 11 18 22 26 30 44 46 44
10 8 5 3 6 8 13 5 6 2 5 3 5 8 4 8 5 9 7 5 9 5 3 3 7 5 6 1 9 12 8 5 5 3 7 6 7 14 12 23 39 46 51 44 45
9 7 8 7 5 4 8 5 3 2 1 3 6 6 6 7 5 10 7 5 4 5 3 4 4 9 8 6 2 9 3 9 5 6 5 8 8 11 8 9 27 36 38 42 45
10 5 11 7 4 2 4 4 2 6 4 5 4 3 5 8 7 6 6 4 5 5 4 3 5 5 10 7 7 1 6 4 2 5 12 5 6 6 7 6 19 24 35 41 45
7 6 8 10 8 3 2 5 1 11 9 4 3 3 4 4 3 4 4 7 4 6 6 1 3 7 5 2 3 10 7 5 4 6 9 11 9 8 9 4 13 15 34 44 44
4 2 11 8 1 1 2 5 5 5 7 5 4 3 3 3 4 4 3 4 19 13 7 2 3 2 8 18 10 8 3 2 5 9 6 4 9 8 7 10 13 16 27 33 42
10 5 8 8 2 2 7 4 2 3 2 3 3 4 3 2 2 2 4 11 21 9 4 5 3 5 10 8 7 5 12 8 9 3 8 8 13 2 8 9 21 18 14 12 10
4 3 5 3 8 3 3 4 4 5 3 5 4 2 2 4 3 3 6 6 13 9 15 5 1 4 4 8 9 9 14 12 5 5 9 9 12 7 7 7 12 28 21 17 11
4 2 6 3 6 7 1 2 3 3 6 7 4 6 4 2 5 5 6 7 16 6 11 4 4 2 8 11 8 11 14 14 12 13 7 18 15 11 8 13 4 3 31 20 11
5 6 8 8 11 9 4 3 4 4 3 1 5 4 8 5 4 3 1 2 5 6 3 2 4 5 6 9 7 15 15 10 6 11 6 9 2 4 2 32 18 4 8 25 19
10 8 4 6 7 5 4 5 3 5 10 11 5 3 4 4 2 10 15 18 15 7 9 4 3 3 8 6 15 13 3 3 6 8 9 6 7 7 3 8 13 14 13 10 12
Wind_Direction
344 338 331 324 318 315 315 316 316 313 312 311 309 306 305 303 299 298 294 283 350 10 132 158 124 105 124 151 121 114 34 321 9 322 313 135 130 138 140 137 150 194 143 155 152
348 343 337 331 325 318 314 313 314 313 311 309 310 307 302 301 307 286 285 263 284 339 314 185 201 170 299 187 121 96 154 234 197 267 279 315 132 129 136 145 122 127 141 155 155
350 346 343 340 334 329 323 319 317 314 314 309 308 305 303 305 311 311 279 250 228 133 151 227 279 263 188 214 138 141 206 194 242 246 249 284 146 145 136 145 148 143 147 154 157
351 347 343 343 341 339 333 330 329 326 323 318 309 302 303 238 179 87 19 355 209 186 192 211 297 254 148 247 145 118 147 166 259 255 266 247 145 152 146 161 152 149 152 156 159
0 353 346 341 341 344 341 339 339 336 337 336 319 302 309 200 226 306 313 326 242 225 224 229 267 240 217 229 202 144 158 176 240 265 263 273 109 125 133 148 153 157 153 162 164
2 359 353 345 341 343 345 346 346 342 348 351 333 331 222 242 129 52 340 307 307 243 236 232 231 308 284 271 255 116 170 171 196 256 254 159 111 120 148 152 155 164 166 170 171
2 3 1 352 348 348 348 353 356 345 354 5 359 339 249 177 75 12 10 294 318 333 259 249 268 280 304 304 92 109 123 116 21 319 82 105 69 146 156 157 159 168 176 177 176
358 359 359 359 1 2 357 1 357 4 20 29 24 358 230 60 273 293 268 285 295 287 318 272 279 291 288 331 5 61 55 80 159 299 223 49 205 152 163 162 167 174 182 186 181
354 356 354 357 17 25 9 343 346 31 22 14 2 6 38 29 19 5 293 250 248 271 271 292 290 276 344 28 5 335 152 148 56 287 294 209 153 187 175 170 175 182 185 188 182
353 357 358 5 42 36 20 27 96 60 11 25 325 333 14 10 22 351 313 290 268 290 314 272 273 55 5 64 252 319 5 173 159 236 221 267 230 190 181 177 177 189 194 189 183
355 359 4 23 54 50 38 30 28 342 339 269 284 284 306 328 319 302 328 297 283 294 11 327 66 220 247 246 265 267 278 243 229 207 172 217 230 189 187 182 183 192 200 189 184
354 1 19 68 53 39 50 52 33 340 312 309 277 279 282 299 325 13 358 79 32 325 0 2 305 257 245 261 273 281 283 276 245 207 197 183 215 186 188 190 188 191 202 190 186
350 358 16 46 44 22 21 41 5 324 326 303 283 228 135 287 276 300 232 194 189 338 299 176 255 307 307 305 303 287 214 269 270 232 198 157 226 197 209 192 198 198 203 194 187
340 348 353 331 63 47 34 19 347 351 66 283 243 277 337 276 278 315 206 189 126 206 230 233 274 284 301 293 318 305 294 273 232 131 214 160 261 223 203 204 198 200 203 198 188
322 335 347 45 50 32 359 347 338 308 63 195 65 40 317 287 302 341 184 183 201 249 104 258 302 309 313 267 298 273 292 302 279 211 112 299 180 247 197 215 199 203 202 202 191
315 306 311 297 55 13 356 348 320 44 119 18 40 342 17 342 322 323 32 278 279 205 294 223 247 201 222 292 283 290 310 320 299 170 211 241 193 255 185 210 205 202 203 205 193
313 287 276 246 70 15 2 359 49 96 354 347 353 6 354 305 316 41 27 31 26 12 350 334 299 300 330 313 309 110 45 322 329 260 225 233 232 237 200 214 204 196 203 201 197
314 275 230 168 67 21 358 50 75 104 40 6 6 346 49 2 24 2 10 31 34 74 91 36 343 34 332 303 270 282 157 175 288 296 287 256 230 260 195 213 210 200 199 197 196
328 265 231 134 112 5 359 51 198 104 41 27 2 54 345 7 38 22 20 28 50 48 63 339 274 303 301 344 36 302 213 205 224 244 284 250 281 293 251 248 201 197 196 193 195
354 304 218 137 138 289 69 236 249 125 124 62 74 71 6 337 35 46 14 344 350 47 117 268 296 275 300 338 309 222 273 342 347 252 265 254 254 235 311 195 197 191 194 196 197
349 346 148 138 162 180 150 234 50 143 125 115 129 44 13 22 15 16 317 306 38 332 9 82 122 288 355 315 307 333 324 329 273 182 244 276 267 212 251 218 172 215 204 197 194
356 13 151 168 182 38 172 211 177 149 96 73 105 99 113 40 355 359 306 252 339 348 311 281 152 319 258 280 259 223 67 81 347 308 287 214 259 281 190 152 141 79 227 222 199
343 290 189 220 126 294 305 325 214 124 137 105 96 93 83 348 344 276 344 328 21 27 20 323 339 344 339 335 19 34 329 321 298 287 264 251 257 240 63 10 114 68 61 166 218
2 6 354 154 56 96 9 345 10 33 110 102 130 57 48 46 120 275 344 349 8 26 14 18 76 156 219 254 298 296 317 309 296 292 284 283 276 243 117 87 73 110 88 98 147
26 5 11 335 335 330 50 261 321 356 84 66 41 101 118 47 7 15 1 343 337 357 11 79 253 281 298 298 291 304 313 316 312 275 232 289 298 267 137 143 123 189 128 109 116
44 9 343 304 336 356 10 273 59 76 110 100 97 72 79 106 154 269 317 275 237 303 11 342 261 4 284 298 314 309 301 292 343 345 328 296 283 11 61 121 114 92 59 106 108
29 5 350 318 356 26 316 274 109 114 91 104 106 77 92 146 6 304 282 269 245 228 276 179 206 76 269 14 330 299 292 337 271 49 331 313 332 159 39 83 105 124 147 141 77